Tracking 17694 objects as of 26-May-2016
HD Live streaming from Space Station
objects crossing your sky now

GOES 7

Track GOES 7 now!
GOES 7 is classified as:


NORAD ID: 17561
Int'l Code: 1987-022A
Perigee: 35,885.5 km
Apogee: 35,906.5 km
Inclination: 15.1 °
Period: 1,441.3 minutes
Semi major axis: 42266 km
RCS: 10.3409 m2 (large)
Launch date: February 26, 1987
Source: United States (US)
Launch site: AIR FORCE EASTERN TEST RANGE (AFETR)
Your satellite tracking list
Your tracking list is empty





NASA's NSSDC Master Catalog

Two Line Element Set (TLE):
1 17561U 87022A   16146.36695350 -.00000222  00000-0  00000+0 0  9990
2 17561  15.0891   9.9571 0002492 281.8214  64.1145  0.99908109 90263
Source of the keplerian elements: AFSPC

N2YO: 591